User: anonymous   Login
Location: Fort Frances
(48.6170°N, 93.4170°W)
Time: 11:30:51
(UTC-06:00)
Language:

CZ-2C R/B - Orbit

View from above orbital plane
View from above orbital plane
View from above satellite
View from above satellite

Ground track
Ground track

The orbit data is extracted from the following two-line orbital elements,

1 36089U 09061B   17052.13471944  .00000066  00000-0  27707-4 0  9999
2 36089  98.0513  59.0919 0082968  43.8431   1.6607 14.49640715384896
Epoch (UTC): 21 February 2017 03:13:59
Eccentricity: 0.0082968
inclination: 98.0513°
perigee height: 668 km
apogee height: 786 km
right ascension of ascending node: 59.0919°
argument of perigee: 43.8431°
revolutions per day: 14.49640715
mean anomaly at epoch: 1.6607°
orbit number at epoch: 38489

The dashed part of the orbit path shows where the satellite is in the earth's shadow,  

DLR